TimeCDT,TemperatureF,Dew PointF,Humidity,Sea Level PressureIn,VisibilityMPH,Wind Direction,Wind SpeedMPH,Gust SpeedMPH,PrecipitationIn,Events,Conditions,WindDirDegrees,DateUTC
12:06 AM,53.6,50.0,88,30.21,10.0,North,4.6,-,N/A,,Overcast,10,2012-10-12 05:06:00
12:54 AM,55.0,51.1,86,30.22,10.0,NNE,5.8,-,N/A,,Overcast,20,2012-10-12 05:54:00
1:54 AM,55.0,51.1,86,30.22,10.0,North,8.1,-,N/A,,Overcast,10,2012-10-12 06:54:00
2:54 AM,55.4,42.8,63,30.24,10.0,NNE,12.7,-,N/A,,Overcast,30,2012-10-12 07:54:00
3:54 AM,53.1,39.9,61,30.25,10.0,NNE,12.7,-,N/A,,Overcast,20,2012-10-12 08:54:00
4:54 AM,52.0,39.0,61,30.25,10.0,NE,11.5,-,N/A,,Overcast,40,2012-10-12 09:54:00
5:54 AM,51.1,39.0,63,30.27,10.0,NE,13.8,18.4,N/A,,Overcast,50,2012-10-12 10:54:00
6:54 AM,50.0,39.0,66,30.28,10.0,NE,13.8,-,N/A,,Overcast,50,2012-10-12 11:54:00
7:54 AM,48.9,37.0,64,30.31,10.0,ENE,13.8,-,N/A,,Mostly Cloudy,70,2012-10-12 12:54:00
8:54 AM,51.8,35.6,54,30.32,10.0,ENE,18.4,23.0,N/A,,Overcast,60,2012-10-12 13:54:00
9:54 AM,53.1,35.1,50,30.35,10.0,ENE,9.2,-,N/A,,Mostly Cloudy,70,2012-10-12 14:54:00
10:54 AM,55.9,36.0,47,30.35,10.0,East,13.8,20.7,N/A,,Clear,90,2012-10-12 15:54:00
11:54 AM,57.0,37.0,47,30.35,10.0,ENE,4.6,-,N/A,,Mostly Cloudy,70,2012-10-12 16:54:00
12:20 PM,57.2,37.4,48,30.34,10.0,East,11.5,-,N/A,,Overcast,80,2012-10-12 17:20:00
12:54 PM,59.0,39.9,49,30.32,10.0,East,9.2,-,N/A,,Overcast,90,2012-10-12 17:54:00
1:54 PM,61.0,43.0,52,30.29,10.0,East,11.5,-,N/A,,Overcast,100,2012-10-12 18:54:00
2:33 PM,60.8,42.8,52,30.28,10.0,ESE,9.2,-,N/A,,Overcast,120,2012-10-12 19:33:00
2:54 PM,61.0,44.1,54,30.27,10.0,East,9.2,-,N/A,,Overcast,100,2012-10-12 19:54:00
3:54 PM,61.0,45.0,56,30.25,10.0,East,10.4,-,N/A,,Overcast,100,2012-10-12 20:54:00
4:33 PM,62.6,46.4,55,30.23,10.0,SE,12.7,-,N/A,,Overcast,130,2012-10-12 21:33:00
4:54 PM,62.6,46.4,55,30.23,10.0,ESE,11.5,-,N/A,,Overcast,120,2012-10-12 21:54:00
5:54 PM,59.0,46.0,62,30.22,10.0,ESE,8.1,-,N/A,,Clear,120,2012-10-12 22:54:00
6:54 PM,57.9,46.9,67,30.21,10.0,SE,6.9,-,N/A,,Clear,130,2012-10-12 23:54:00
7:54 PM,55.9,46.9,72,30.20,10.0,SE,6.9,-,N/A,,Clear,130,2012-10-13 00:54:00
8:54 PM,55.4,46.4,72,30.20,10.0,SE,9.2,-,N/A,,Clear,130,2012-10-13 01:54:00
9:54 PM,55.0,48.0,77,30.19,10.0,SE,9.2,-,N/A,,Clear,130,2012-10-13 02:54:00
10:54 PM,55.0,48.9,80,30.21,10.0,SSE,9.2,-,N/A,,Partly Cloudy,150,2012-10-13 03:54:00
11:08 PM,55.4,48.2,77,30.20,10.0,SSE,10.4,-,N/A,,Mostly Cloudy,150,2012-10-13 04:08:00
11:54 PM,55.9,51.1,84,30.16,10.0,SSE,10.4,-,N/A,,Overcast,150,2012-10-13 04:54:00